Contact Us:
Email: info@sawbill.com
Phone: (218)663-7150
Fax: (218)663-7980
Mail: 4620 Sawbill Trail
Box 2129
Tofte, MN 55615


Powered by
Movable Type 3.15
 
Sawbill Weather History Archives: June 2014
Current Sawbill Weather History | « May 2014 | July 2014 »


Date

High
Temperature

Low
Temperature

Barometric
Pressure

Relative
Humidity 7AM

9 AM
Temperature

Moisture

Snow

6/30/14 77 59 29.70 93% 60 .08
6/29/14 72 59 29.72 72% 59 .46"
6/28/14 78 62 29.84 98% 63 .09"
6/27/14 68 48 29.96 98% 65 .26"
6/26/14 72 55 30.02 78% 66 0
6/25/14 65 42 30.10 59% 51 0
6/24/14 62 50 30.04 83% 51 .5"
6/23/14 72 54 30.00 89% 58 .13"
6/22/14 68 53 29.96 89% 54 0
6/21/14 67 53 30.00 96% 56 .06"
6/20/14 58 50 30.00 87% 53 .65"
6/19/14 67 54 30.06 84% 54 .24"
6/18/14 69 52 30.12 64% 55 0
6/17/14 76 55 30.04 81% 56 0
6/16/14 76 55 29.92 84% 56 .1"
6/15/14 59 49 29.90 88% 55 .5"
6/14/14 52 46 29.88 85% 50 .61"
6/13/14 64 47 30.06 71% 47 Trace
6/12/14 56 42 29.90 72% 48 .33"
6/11/14 73 47 29.78 98% 55 .5"
6/10/14 71 47 30.00 72% 47 0
6/9/14 68 43 30.06 40% 60 Trace
6/8/14 66 42 30.08 69% 43 0
6/7/14 62 43 30.18 40% 56 .39"
6/6/14 75 53 30.08 73% 53 .2"
6/5/14 70 53 30.00 79% 54 Trace
6/4/14 70 41 30.02 47% 56 0
6/3/14 65 45 30.00 89% 49 0
6/2/14 65 48 29.99 85% 45 .89"
6/1/14 68 59 29.88 98% 59 2.5"
 


Home I Trip Planning I Rentals and Outfitting I Reservations I Campgrounds I Sawbill Store I Sawbill News I Contact

© 1997 - 2017, Sawbill Canoe Outfitters, Inc. I Privacy Policy